[Iaude] MPEC X10: 2019 VG6 [a=1.75,e=0.53,i=9.3,H=20.6]

mpec at marsden.cfa.harvard.edu mpec at marsden.cfa.harvard.edu
Sun Dec 1 14:56:22 EST 2019


M.P.E.C. 2019-X10                              Issued 2019 December 1, 19:54 UT

     The Minor Planet Electronic Circulars contain information on unusual
         minor planets and routine data on comets.  They are published
    on behalf of Division F of the International Astronomical Union by the
          Minor Planet Center, Smithsonian Astrophysical Observatory,
                          Cambridge, MA 02138, U.S.A.

             Prepared using the Tamkin Foundation Computer Network

                              MPC at CFA.HARVARD.EDU
            URL https://www.minorplanetcenter.net/    ISSN 1523-6714

                                    2019 VG6                                    


Observations:
     K19V06G* C2019 11 04.19153 01 10 35.98 +29 29 21.7          21.6 GVEX010G96
     K19V06G  C2019 11 04.20199 01 10 34.63 +29 29 13.5          21.8 GVEX010G96
     K19V06G  C2019 11 04.20723 01 10 33.91 +29 29 08.8          21.5 GVEX010G96
     K19V06G  C2019 11 04.23459501 10 30.46 +29 28 50.8          21.9 GVEX010H01
     K19V06G  C2019 11 04.23868001 10 29.94 +29 28 48.0          21.8 GVEX010H01
     K19V06G  C2019 11 04.25597 01 10 27.76 +29 28 35.8          21.6 GVEX010G96
     K19V06G  C2019 11 04.25605201 10 27.72 +29 28 35.7          21.8 GVEX010H01
     K19V06G  C2019 11 04.25851 01 10 27.51 +29 28 34.4          22.2 GVEX010G96
     K19V06G  C2019 11 04.25941201 10 27.30 +29 28 33.4          22.0 GVEX010H01
     K19V06G  C2019 11 04.26104 01 10 27.18 +29 28 33.3          22.4 GVEX010G96
     K19V06G  C2019 11 05.15271 01 08 39.04 +29 17 59.5          21.4 GVEX010I52
     K19V06G  C2019 11 05.15780 01 08 38.39 +29 17 55.8          22.0 GVEX010I52
     K19V06G  C2019 11 05.16530 01 08 37.47 +29 17 50.6          22.8 GVEX010I52
     K19V06G  C2019 11 05.46692601 08 00.160+29 14 13.27         21.9 GVEX010F51
     K19V06G  C2019 11 05.47859701 07 58.699+29 14 04.59         21.9 GVEX010F51
     K19V06G  C2019 11 05.49028001 07 57.253+29 13 55.83         21.9 GVEX010F51

Observer details:
F51 Pan-STARRS 1, Haleakala.  Observers J. Bulger, K. Chambers, T. Lowe, E. 
   Magnier, A. Schultz, M. Willman.  Measurers S. Chastel, M. Huber, Y. 
   Ramanjooloo, R. Wainscoat, R. Weryk.  1.8-m Ritchey-Chretien + CCD.
G96 Mt. Lemmon Survey.  Observer E. J. Christensen.  Measurers E. J. 
   Christensen, G. A. Farneth, D. C. Fuls, A. R. Gibbs, A. D. Grauer, H. 
   Groeller, R. A. Kowalski, S. M. Larson, G. J. Leonard, T. A. Pruyne, D. 
   Rankin, R. L. Seaman, F. C. Shelly, K. W. Wierzchos.  1.5-m reflector + 10K 
   CCD.
H01 Magdalena Ridge Observatory, Socorro.  Observers W. H. Ryan, E. V. Ryan.  
    Measurer W. H. Ryan.  2.4-m f/8.9 Ritchey-Chretien + CCD.
I52 Steward Observatory, Mt. Lemmon Station.  Observer D. Rankin.  Measurers E. 
   J. Christensen, G. A. Farneth, D. C. Fuls, A. R. Gibbs, A. D. Grauer, H. 
   Groeller, R. A. Kowalski, S. M. Larson, G. J. Leonard, T. A. Pruyne, D. 
   Rankin, R. L. Seaman, F. C. Shelly, K. W. Wierzchos.  1.0-m reflector + CCD.

Orbital elements:
2019 VG6                                            PHA, Earth MOID = 0.0399 AU
Epoch 2020 May 31.0 TT = JDT 2459000.5                  Veres
M  28.31188              (2000.0)            P               Q
n   0.42722580     Peri.  222.05536     -0.92087463     -0.36186920
a   1.7459470      Node   296.19005     +0.38668693     -0.80044169
e   0.5291164      Incl.    9.30265     +0.04962993     -0.47785330
P   2.31           H   20.6           G   0.15           U   9
Residuals in seconds of arc
191104 G96  0.4+  0.9+    191104 H01  0.2-  0.0     191105 I52  0.1+  0.0
191104 G96  0.1+  0.1-    191104 G96  0.5+  0.1+    191105 F51  0.0   0.1-
191104 G96  0.7-  1.2-    191104 H01  0.2-  0.0     191105 F51  0.1-  0.0
191104 H01  0.1+  0.0     191104 G96  0.4+  0.7+    191105 F51  0.0   0.1+
191104 H01  0.0   0.1+    191105 I52  0.0   0.0
191104 G96  0.4-  0.3-    191105 I52  0.1-  0.1-

Ephemeris:
2019 VG6                 a,e,i = 1.75, 0.53, 9                   q = 0.8221
Date    TT    R. A. (2000) Decl.     Delta      r    Elong.  Phase     V
2019 11 01    01 17 09.8 +30 03 58   0.8271  1.7870   158.1    12.0    22.2
...
2019 11 16    00 48 27.9 +26 46 29   0.7811  1.6831   143.6    20.4    22.2
...
2019 11 24    00 36 57.6 +24 39 09   0.7753  1.6252   134.1    25.9    22.3
...
2019 11 30    00 30 47.6 +23 03 52   0.7772  1.5807   127.0    29.9    22.3
2019 12 01    00 29 59.0 +22 48 25   0.7779  1.5732   125.8    30.6    22.4
2019 12 02    00 29 14.3 +22 33 09   0.7787  1.5657   124.6    31.2    22.4
...
2019 12 08    00 26 05.1 +21 06 06   0.7853  1.5201   117.9    34.9    22.4
...
2019 12 16    00 25 16.9 +19 25 15   0.7968  1.4580   109.5    39.5    22.5
...
2019 12 31    00 33 16.2 +17 10 15   0.8169  1.3386    95.6    47.0    22.6

A. U. Tomatic                (C) Copyright 2019 MPC           M.P.E.C. 2019-X10




More information about the Iaude mailing list